Location: York
(31.8935°S, 116.7682°E)
Time: 22:31:20
(UTC+08:00)

X-37B - Visible Passes

Search period start: 25 September 2022 00:00
Search period end: 05 October 2022 00:00
Orbit: 330 x 340 km, 45.0° (Epoch: 02 September)

Date Brightness Start Highest point End Pass type
(mag) Time Alt. Az. Time Alt. Az. Time Alt. Az.
29 Sep 2.3 19:19:42 10° SSW 19:21:48 18° SSE 19:22:14 17° SE visible
30 Sep 1.3 19:39:39 10° SW 19:41:57 39° S 19:41:57 39° S visible
01 Oct 2.4 20:00:05 10° WSW 20:01:45 28° W 20:01:45 28° W visible
02 Oct 0.9 18:45:05 10° SW 18:47:52 44° SSE 18:50:24 12° ENE visible
02 Oct 3.8 20:21:38 10° WNW 20:21:39 10° WNW 20:21:39 10° WNW visible
03 Oct 1.1 19:05:31 10° WSW 19:08:17 47° NW 19:10:24 15° NNE visible
04 Oct 3.1 19:27:02 10° WNW 19:28:32 13° NW 19:30:00 10° NNW visible
